Weather in Samut Songkhram

Thailand     13°24′32″N   99°59′18″E
temp.,
°C
wind,
m/s
gust,
m/s
humid.,
%
clouds,
%
prec.,
mm/h
press.,
hPa
HPBL,
m
26 january, tue
tue2601:00+23w117511 0.0 101130
04:00+23w117899 0.0 101025
07:00+22n117870 0.0 101131
10:00+32nw12440 0.0 1012691
13:00+36ese23330 0.0 10092012
16:00+32se554210 0.0 1006738
19:00+28s345522 0.0 100881
22:00+26s34630 0.0 101096
27 january, wed
wed2701:00+25s23720 0.0 101086
04:00+24ssw117432 0.0 100930
07:00+24w116867 0.0 101029
10:00+33s124163 0.0 1012840
13:00+33se444431 0.0 10101357
16:00+32sse444669 0.0 1007892
19:00+27sse366937 0.0 1009166
22:00+25s35754 0.0 1011141
28 january, thu
thu2801:00+25sse23782 0.0 101171
04:00+24s23810 0.0 101075
07:00+23nnw11786 0.0 101230
10:00+34ene014222 0.0 1013761
13:00+34ese443926 0.0 10111624
16:00+33sse33449 0.0 1008939
19:00+28s23614 0.0 101037
22:00+26se237217 0.0 101276
29 january, fri
fri2901:00+26se358023 0.0 1012150
04:00+24ese11870 0.0 101229
07:00+24ene38700 1.8 1014304
10:00+28ene354536 0.1 10161067
13:00+32e453919 0.1 10141560
16:00+31se333927 0.0 10101179
19:00+27sw115124 0.0 101124
22:00+25sw115747 0.0 101324
30 january, sat
sat3001:00+24n016266 0.0 101324
04:00+22w016583 0.0 101229
07:00+22nw126742 0.0 101475
10:00+30ene243930 0.0 10161129
13:00+32e453615 0.0 10131622
16:00+31se34380 0.0 10101168
19:00+25s12550 0.0 101227
22:00+24sse23670 0.0 101455